Location: Tucson
(32.2220°N, 110.9260°W)
Time: 22:04:15
(UTC-07:00)

Envisat - Visible Passes

Search period start: 19 October 2018 00:00
Search period end: 29 October 2018 00:00
Orbit: 764 x 766 km, 98.2° (Epoch: 19 October)

Date Brightness Start Highest point End Pass type
(mag) Time Alt. Az. Time Alt. Az. Time Alt. Az.
19 Oct 4.1 18:32:36 10° ESE 18:36:31 23° ENE 18:40:26 10° NNE visible
19 Oct 4.6 20:10:47 10° SSW 20:15:18 32° W 20:19:50 10° NW visible
20 Oct 3.0 19:33:27 10° S 19:38:30 81° WSW 19:43:35 10° NNW visible
21 Oct 3.3 18:57:09 10° SE 19:01:53 41° ENE 19:06:38 10° N visible
21 Oct 5.5 20:37:42 10° SW 20:41:00 17° W 20:44:19 10° NW visible
22 Oct 4.3 18:22:06 10° ESE 18:25:27 18° ENE 18:28:47 10° NNE visible
22 Oct 4.1 19:59:18 10° S 20:04:05 42° W 20:08:53 10° NNW visible
23 Oct 2.8 19:22:16 10° SSE 19:27:20 79° ENE 19:32:25 10° N visible
24 Oct 3.6 18:46:18 10° SE 18:50:45 32° ENE 18:55:14 10° N visible
24 Oct 5.2 20:25:49 10° SSW 20:29:45 23° W 20:33:42 10° NW visible
25 Oct 4.6 18:11:52 10° E 18:14:23 14° ENE 18:16:55 10° NE visible
25 Oct 3.6 19:47:55 10° S 19:52:52 55° W 19:57:51 10° NNW visible
26 Oct 2.9 19:11:13 10° SSE 19:16:11 60° ENE 19:21:11 10° N visible
26 Oct 5.9 20:53:47 10° WSW 20:55:30 12° W 20:57:13 10° WNW visible
27 Oct 3.9 18:35:35 10° SE 18:39:40 25° ENE 18:43:45 10° NNE visible
27 Oct 4.7 20:14:08 10° SSW 20:18:30 29° W 20:22:54 10° NW visible
28 Oct 4.8 18:02:23 10° ENE 18:03:21 11° ENE 18:04:20 10° NE visible
28 Oct 3.1 19:36:38 10° S 19:41:41 73° WSW 19:46:46 10° NNW visible
